Retour au catalogue

STARLINK-6324

ActifCommunicationsVLEO
NORAD 57353·PAYLOAD·🇺🇸 United States

Lancé Jul 16, 2023 depuis Cape Canaveral Space Force Station

Loading…

Prochains Passages (prochaines 24 heures)

TLE

FraisSource: CelesTrak SupGP

Époque: Sep 14, 2026, 20:54 UTC

1 57353C 23099AB  26257.87131944  .00017922  00000+0  64926-3 0  2572
2 57353  42.9995 260.5527 0001479 260.7570 319.6688 15.27563278    16

Suivez STARLINK-6324 en temps réel avec AllMySat

Download on the App Store